Content
SEND FEEDBACK

Daily
Averages
Monthly
Summary
United States of America

ANN ARBOR, MICHIGAN


Home > North America > United States > Michigan
Elevation: 759 feet     Latitude: 42 17N     Longitude: 083 43W

WEATHER
 
SELECT A DAY
Number of Records: 204,542;   Date Range: 1/1/95 - 9/22/14
 
SHARE

PRINT THIS DATA

[ ← Previous Day ]
WEATHER ALMANAC - NOVEMBER 20, 2013
[ Next Day → ]
[ °C ]   °F
Weather ElementAverageHighLow
Temperature33.1 °F43 °F (12:53 pm)19.9 °F (4:53 am)
Dewpoint23.8 °F30.9 °F (9:53 am)17.1 °F (4:53 am)
Humidity71.3 %93 % (7:16 am)45 % (12:53 pm)
Barometer30.36 in30.45 in (7:53 am)30.25 in (10:53 pm)
Wind Speed5.2 mph16.1 mph (12:53 pm)
Wind Gust21.9 mph (11:53 am)
Weather ElementAverage
Visibility10 mi
Wind DirectionE (93.5 °)

Weather ElementTotal
Precipitation---
Heating Degree Days33.6 (Base 65)
Averaged from 26 records on November 20, 2013
WEATHER CONDITIONS BREAKOUT
WIND DIRECTION BREAKOUT
WEATHER BY HOUR - NOVEMBER 20, 2013
[ °C ]   °F
Local TimeTemperatureDewpointHumidityBarometerVisibilityWind DirectionWind SpeedGust SpeedPrecipitationEventsConditions
1:53 AM21.9 °F19.0 °F89 %30.42 in10.0 miCalmClear
2:53 AM23.0 °F19.9 °F88 %30.43 in10.0 miCalmClear
3:53 AM21.0 °F18.0 °F88 %30.43 in10.0 miCalmClear
4:53 AM19.9 °F17.1 °F89 %30.43 in10.0 miCalmPartly Cloudy
5:53 AM21.9 °F19.9 °F92 %30.44 in10.0 miCalmMostly Cloudy
6:27 AM21.2 °F17.6 °F86 %30.40 in10.0 miCalmScattered Clouds
6:53 AM21.9 °F19.0 °F89 %30.44 in10.0 miCalmPartly Cloudy
7:16 AM21.2 °F19.4 °F93 %30.41 in10.0 miCalmMostly Cloudy
7:53 AM24.1 °F21.9 °F91 %30.45 in10.0 miWSW (250°)3.5 mphMostly Cloudy
8:53 AM30.0 °F28.0 °F92 %30.45 in10.0 miCalmOvercast
9:51 AM35.6 °F30.2 °F81 %30.40 in10.0 miESE (120°)4.6 mphScattered Clouds
9:53 AM37.0 °F30.9 °F79 %30.43 in10.0 miSE (130°)6.9 mphPartly Cloudy
10:53 AM39.9 °F28.9 °F65 %30.42 in10.0 miSE (140°)13.8 mphClear
11:53 AM42.1 °F25.0 °F51 %30.38 in10.0 miSE (140°)13.8 mph21.9 mphClear
12:53 PM43.0 °F23.0 °F45 %30.34 in10.0 miSE (130°)16.1 mphClear
1:53 PM43.0 °F23.0 °F45 %30.32 in10.0 miESE (120°)12.7 mph20.7 mphClear
2:53 PM43.0 °F25.0 °F49 %30.31 in10.0 miSE (140°)9.2 mph17.3 mphClear
3:53 PM43.0 °F24.1 °F47 %30.29 in10.0 miESE (120°)9.2 mphClear
4:53 PM41.0 °F23.0 °F49 %30.27 in10.0 miESE (120°)10.4 mphClear
5:53 PM37.9 °F25.0 °F60 %30.29 in10.0 miESE (120°)5.8 mphClear
6:53 PM37.9 °F27.0 °F65 %30.29 in10.0 miSE (130°)6.9 mphClear
7:53 PM37.0 °F27.0 °F67 %30.28 in10.0 miSE (130°)5.8 mphClear
8:53 PM36.0 °F27.0 °F70 %30.27 in10.0 miSE (140°)4.6 mphClear
9:53 PM37.9 °F27.0 °F65 %30.26 in10.0 miSE (140°)3.5 mphClear
10:53 PM39.9 °F26.1 °F58 %30.25 in10.0 miSouth (170°)3.5 mphPartly Cloudy
11:53 PM39.9 °F27.0 °F60 %30.28 in10.0 miSouth (190°)4.6 mphOvercast
Hourly data recorded from KARB, located miles away from Ann Arbor, Michigan







STORIES FROM OUR PARTNERS